Year,Month,Day,Hour,Minute,Value (Times are PST for temperature in C)
2018,04,17,00,00,8.20
2018,04,17,00,01,8.20
2018,04,17,00,02,8.20
2018,04,17,00,03,8.20
2018,04,17,00,04,8.20
2018,04,17,00,05,8.20
2018,04,17,00,06,8.20
2018,04,17,00,07,8.20
2018,04,17,00,08,8.20
2018,04,17,00,09,8.20
2018,04,17,00,10,8.20
2018,04,17,00,11,8.20
2018,04,17,00,12,8.20
2018,04,17,00,13,8.20
2018,04,17,00,14,8.20
2018,04,17,00,15,8.20
2018,04,17,00,16,8.20
2018,04,17,00,17,8.20
2018,04,17,00,18,8.20
2018,04,17,00,19,8.20
2018,04,17,00,20,8.20
2018,04,17,00,21,8.20
2018,04,17,00,22,8.20
2018,04,17,00,23,8.10
2018,04,17,00,24,8.10
2018,04,17,00,25,8.10
2018,04,17,00,26,8.20
2018,04,17,00,27,8.20
2018,04,17,00,28,8.20
2018,04,17,00,29,8.20
2018,04,17,00,30,8.20
2018,04,17,00,31,8.20
2018,04,17,00,32,8.20
2018,04,17,00,33,8.20
2018,04,17,00,34,8.20
2018,04,17,00,35,8.20
2018,04,17,00,36,8.20
2018,04,17,00,37,8.20
2018,04,17,00,38,8.20
2018,04,17,00,39,8.20
2018,04,17,00,40,8.20
2018,04,17,00,41,8.20
2018,04,17,00,42,8.20
2018,04,17,00,43,8.20
2018,04,17,00,44,8.20
2018,04,17,00,45,8.20
2018,04,17,00,46,8.20
2018,04,17,00,47,8.20
2018,04,17,00,48,8.20
2018,04,17,00,49,8.20
2018,04,17,00,50,8.20
2018,04,17,00,51,8.20
2018,04,17,00,52,8.20
2018,04,17,00,53,8.20
2018,04,17,00,54,8.20
2018,04,17,00,55,8.10
2018,04,17,00,56,8.10
2018,04,17,00,57,8.10
2018,04,17,00,58,8.10
2018,04,17,00,59,8.10
2018,04,17,01,00,8.10
2018,04,17,01,01,8.10
2018,04,17,01,02,8.00
2018,04,17,01,03,8.00
2018,04,17,01,04,8.10
2018,04,17,01,05,8.00
2018,04,17,01,06,8.00
2018,04,17,01,07,8.00
2018,04,17,01,08,8.10
2018,04,17,01,09,8.10
2018,04,17,01,10,8.00
2018,04,17,01,11,8.00
2018,04,17,01,12,8.00
2018,04,17,01,13,8.00
2018,04,17,01,14,8.00
2018,04,17,01,15,8.10
2018,04,17,01,16,8.10
2018,04,17,01,17,8.10
2018,04,17,01,18,8.00
2018,04,17,01,19,8.00
2018,04,17,01,20,8.00
2018,04,17,01,21,8.00
2018,04,17,01,22,7.90
2018,04,17,01,23,7.90
2018,04,17,01,24,7.90
2018,04,17,01,25,7.90
2018,04,17,01,26,7.90
2018,04,17,01,27,7.90
2018,04,17,01,28,7.90
2018,04,17,01,29,7.90
2018,04,17,01,30,7.90
2018,04,17,01,31,7.90
2018,04,17,01,32,7.90
2018,04,17,01,33,7.80
2018,04,17,01,34,7.80
2018,04,17,01,35,7.80
2018,04,17,01,36,7.80
2018,04,17,01,37,7.80
2018,04,17,01,38,7.80
2018,04,17,01,39,7.80
2018,04,17,01,40,7.80
2018,04,17,01,41,7.80
2018,04,17,01,42,7.80
2018,04,17,01,43,7.80
2018,04,17,01,44,7.80
2018,04,17,01,45,7.80
2018,04,17,01,46,7.80
2018,04,17,01,47,7.80
2018,04,17,01,48,7.80
2018,04,17,01,49,7.80
2018,04,17,01,50,7.80
2018,04,17,01,51,7.80
2018,04,17,01,52,7.80
2018,04,17,01,53,7.80
2018,04,17,01,54,7.80
2018,04,17,01,55,7.80
2018,04,17,01,56,7.80
2018,04,17,01,57,7.80
2018,04,17,01,58,7.70
2018,04,17,01,59,7.70
2018,04,17,02,00,7.80
2018,04,17,02,01,7.80
2018,04,17,02,02,7.80
2018,04,17,02,03,7.80
2018,04,17,02,04,7.80
2018,04,17,02,05,7.80
2018,04,17,02,06,7.70
2018,04,17,02,07,7.70
2018,04,17,02,08,7.70
2018,04,17,02,09,7.70
2018,04,17,02,10,7.70
2018,04,17,02,11,7.70
2018,04,17,02,12,7.70
2018,04,17,02,13,7.70
2018,04,17,02,14,7.70
2018,04,17,02,15,7.70
2018,04,17,02,16,7.60
2018,04,17,02,17,7.60
2018,04,17,02,18,7.60
2018,04,17,02,19,7.60
2018,04,17,02,20,7.60
2018,04,17,02,21,7.60
2018,04,17,02,22,7.60
2018,04,17,02,23,7.60
2018,04,17,02,24,7.50
2018,04,17,02,25,7.50
2018,04,17,02,26,7.50
2018,04,17,02,27,7.50
2018,04,17,02,28,7.50
2018,04,17,02,29,7.50
2018,04,17,02,30,7.50
2018,04,17,02,31,7.50
2018,04,17,02,32,7.50
2018,04,17,02,33,7.50
2018,04,17,02,34,7.50
2018,04,17,02,35,7.50
2018,04,17,02,36,7.40
2018,04,17,02,37,7.40
2018,04,17,02,38,7.40
2018,04,17,02,39,7.40
2018,04,17,02,40,7.40
2018,04,17,02,41,7.40
2018,04,17,02,42,7.40
2018,04,17,02,43,7.40
2018,04,17,02,44,7.40
2018,04,17,02,45,7.40
2018,04,17,02,46,7.40
2018,04,17,02,47,7.40
2018,04,17,02,48,7.40
2018,04,17,02,49,7.40
2018,04,17,02,50,7.40
2018,04,17,02,51,7.30
2018,04,17,02,52,7.30
2018,04,17,02,53,7.30
2018,04,17,02,54,7.30
2018,04,17,02,55,7.30
2018,04,17,02,56,7.30
2018,04,17,02,57,7.30
2018,04,17,02,58,7.30
2018,04,17,02,59,7.30
2018,04,17,03,00,7.30
2018,04,17,03,01,7.30
2018,04,17,03,02,7.30
2018,04,17,03,03,7.30
2018,04,17,03,04,7.30
2018,04,17,03,05,7.30
2018,04,17,03,06,7.30
2018,04,17,03,07,7.30
2018,04,17,03,08,7.30
2018,04,17,03,09,7.30
2018,04,17,03,10,7.30
2018,04,17,03,11,7.30
2018,04,17,03,12,7.30
2018,04,17,03,13,7.30
2018,04,17,03,14,7.30
2018,04,17,03,15,7.30
2018,04,17,03,16,7.30
2018,04,17,03,17,7.30
2018,04,17,03,18,7.30
2018,04,17,03,19,7.30
2018,04,17,03,20,7.30
2018,04,17,03,21,7.30
2018,04,17,03,22,7.20
2018,04,17,03,23,7.20
2018,04,17,03,24,7.20
2018,04,17,03,25,7.20
2018,04,17,03,26,7.20
2018,04,17,03,27,7.20
2018,04,17,03,28,7.20
2018,04,17,03,29,7.10
2018,04,17,03,30,7.10
2018,04,17,03,31,7.10
2018,04,17,03,32,7.10
2018,04,17,03,33,7.10
2018,04,17,03,34,7.10
2018,04,17,03,35,7.10
2018,04,17,03,36,7.10
2018,04,17,03,37,7.10
2018,04,17,03,38,7.10
2018,04,17,03,39,7.20
2018,04,17,03,40,7.20
2018,04,17,03,41,7.20
2018,04,17,03,42,7.20
2018,04,17,03,43,7.20
2018,04,17,03,44,7.20
2018,04,17,03,45,7.20
2018,04,17,03,46,7.20
2018,04,17,03,47,7.20
2018,04,17,03,48,7.30
2018,04,17,03,49,7.30
2018,04,17,03,50,7.30
2018,04,17,03,51,7.30
2018,04,17,03,52,7.30
2018,04,17,03,53,7.30
2018,04,17,03,54,7.30
2018,04,17,03,55,7.30
2018,04,17,03,56,7.30
2018,04,17,03,57,7.30
2018,04,17,03,58,7.30
2018,04,17,03,59,7.30
2018,04,17,04,00,7.30
2018,04,17,04,01,7.30
2018,04,17,04,02,7.30
2018,04,17,04,03,7.30
2018,04,17,04,04,7.30
2018,04,17,04,05,7.30
2018,04,17,04,06,7.30
2018,04,17,04,07,7.30
2018,04,17,04,08,7.30
2018,04,17,04,09,7.30
2018,04,17,04,10,7.30
2018,04,17,04,11,7.30
2018,04,17,04,12,7.30
2018,04,17,04,13,7.30
2018,04,17,04,14,7.30
2018,04,17,04,15,7.30
2018,04,17,04,16,7.30
2018,04,17,04,17,7.30
2018,04,17,04,18,7.30
2018,04,17,04,19,7.30
2018,04,17,04,20,7.30
2018,04,17,04,21,7.30
2018,04,17,04,22,7.30
2018,04,17,04,23,7.30
2018,04,17,04,24,7.30
2018,04,17,04,25,7.30
2018,04,17,04,26,7.30
2018,04,17,04,27,7.30
2018,04,17,04,28,7.30
2018,04,17,04,29,7.30
2018,04,17,04,30,7.30
2018,04,17,04,31,7.30
2018,04,17,04,32,7.30
2018,04,17,04,33,7.30
2018,04,17,04,34,7.30
2018,04,17,04,35,7.30
2018,04,17,04,36,7.30
2018,04,17,04,37,7.30
2018,04,17,04,38,7.30
2018,04,17,04,39,7.30
2018,04,17,04,40,7.20
2018,04,17,04,41,7.20
2018,04,17,04,42,7.20
2018,04,17,04,43,7.20
2018,04,17,04,44,7.20
2018,04,17,04,45,7.20
2018,04,17,04,46,7.20
2018,04,17,04,47,7.10
2018,04,17,04,48,7.10
2018,04,17,04,49,7.10
2018,04,17,04,50,7.10
2018,04,17,04,51,7.10
2018,04,17,04,52,7.10
2018,04,17,04,53,7.10
2018,04,17,04,54,7.10
2018,04,17,04,55,7.10
2018,04,17,04,56,7.00
2018,04,17,04,57,7.00
2018,04,17,04,58,7.00
2018,04,17,04,59,7.00
2018,04,17,05,00,7.00
2018,04,17,05,01,7.00
2018,04,17,05,02,7.00
2018,04,17,05,03,7.00
2018,04,17,05,04,7.00
2018,04,17,05,05,7.00
2018,04,17,05,06,7.00
2018,04,17,05,07,7.00
2018,04,17,05,08,7.00
2018,04,17,05,09,6.90
2018,04,17,05,10,6.90
2018,04,17,05,11,6.90
2018,04,17,05,12,6.90
2018,04,17,05,13,6.90
2018,04,17,05,14,6.90
2018,04,17,05,15,6.90
2018,04,17,05,16,7.00
2018,04,17,05,17,7.00
2018,04,17,05,18,7.00
2018,04,17,05,19,7.00
2018,04,17,05,20,7.00
2018,04,17,05,21,7.00
2018,04,17,05,22,6.90
2018,04,17,05,23,6.90
2018,04,17,05,24,6.90
2018,04,17,05,25,7.00
2018,04,17,05,26,7.00
2018,04,17,05,27,7.00
2018,04,17,05,28,7.00
2018,04,17,05,29,7.00
2018,04,17,05,30,7.00
2018,04,17,05,31,7.00
2018,04,17,05,32,7.00
2018,04,17,05,33,7.00
2018,04,17,05,34,7.00
2018,04,17,05,35,7.00
2018,04,17,05,36,7.00
2018,04,17,05,37,7.00
2018,04,17,05,38,7.00
2018,04,17,05,39,7.00
2018,04,17,05,40,7.00
2018,04,17,05,41,7.00
2018,04,17,05,42,7.00
2018,04,17,05,43,7.00
2018,04,17,05,44,7.10
2018,04,17,05,45,7.10
2018,04,17,05,46,7.10
2018,04,17,05,47,7.10
2018,04,17,05,48,7.10
2018,04,17,05,49,7.10
2018,04,17,05,50,7.10
2018,04,17,05,51,7.10
2018,04,17,05,52,7.10
2018,04,17,05,53,7.10
2018,04,17,05,54,7.10
2018,04,17,05,55,7.00
2018,04,17,05,56,7.00
2018,04,17,05,57,7.00
2018,04,17,05,58,7.00
2018,04,17,05,59,7.00
2018,04,17,06,00,7.00
2018,04,17,06,01,7.00
2018,04,17,06,02,6.90
2018,04,17,06,03,6.90
2018,04,17,06,04,6.90
2018,04,17,06,05,6.90
2018,04,17,06,06,6.90
2018,04,17,06,07,6.90
2018,04,17,06,08,6.90
2018,04,17,06,09,6.90
2018,04,17,06,10,6.90
2018,04,17,06,11,6.90
2018,04,17,06,12,6.90
2018,04,17,06,13,6.90
2018,04,17,06,14,6.90
2018,04,17,06,15,6.90
2018,04,17,06,16,6.90
2018,04,17,06,17,6.90
2018,04,17,06,18,6.90
2018,04,17,06,19,6.80
2018,04,17,06,20,6.80
2018,04,17,06,21,6.80
2018,04,17,06,22,6.80
2018,04,17,06,23,6.80
2018,04,17,06,24,6.80
2018,04,17,06,25,6.80
2018,04,17,06,26,6.80
2018,04,17,06,27,6.80
2018,04,17,06,28,6.80
2018,04,17,06,29,6.90
2018,04,17,06,30,6.90
2018,04,17,06,31,6.90
2018,04,17,06,32,6.90
2018,04,17,06,33,6.90
2018,04,17,06,34,6.90
2018,04,17,06,35,6.90
2018,04,17,06,36,6.90
2018,04,17,06,37,6.90
2018,04,17,06,38,6.90
2018,04,17,06,39,6.90
2018,04,17,06,40,6.90
2018,04,17,06,41,6.90
2018,04,17,06,42,6.90
2018,04,17,06,43,6.90
2018,04,17,06,44,6.90
2018,04,17,06,45,6.90
2018,04,17,06,46,6.90
2018,04,17,06,47,6.90
2018,04,17,06,48,6.90
2018,04,17,06,49,6.90
2018,04,17,06,50,6.90
2018,04,17,06,51,6.90
2018,04,17,06,52,7.00
2018,04,17,06,53,7.00
2018,04,17,06,54,7.00
2018,04,17,06,55,7.00
2018,04,17,06,56,7.00
2018,04,17,06,57,7.00
2018,04,17,06,58,7.00
2018,04,17,06,59,7.00
2018,04,17,07,00,7.00
2018,04,17,07,01,7.00
2018,04,17,07,02,7.00
2018,04,17,07,03,7.10
2018,04,17,07,04,7.10
2018,04,17,07,05,7.10
2018,04,17,07,06,7.10
2018,04,17,07,07,7.10
2018,04,17,07,08,7.10
2018,04,17,07,09,7.10
2018,04,17,07,10,7.10
2018,04,17,07,11,7.10
2018,04,17,07,12,7.10
2018,04,17,07,13,7.20
2018,04,17,07,14,7.20
2018,04,17,07,15,7.20
2018,04,17,07,16,7.20
2018,04,17,07,17,7.20
2018,04,17,07,18,7.20
2018,04,17,07,19,7.30
2018,04,17,07,20,7.30
2018,04,17,07,21,7.30
2018,04,17,07,22,7.30
2018,04,17,07,23,7.30
2018,04,17,07,24,7.30
2018,04,17,07,25,7.30
2018,04,17,07,26,7.30
2018,04,17,07,27,7.30
2018,04,17,07,28,7.30
2018,04,17,07,29,7.30
2018,04,17,07,30,7.30
2018,04,17,07,31,7.30
2018,04,17,07,32,7.30
2018,04,17,07,33,7.30
2018,04,17,07,34,7.30
2018,04,17,07,35,7.20
2018,04,17,07,36,7.20
2018,04,17,07,37,7.20
2018,04,17,07,38,7.20
2018,04,17,07,39,7.30
2018,04,17,07,40,7.30
2018,04,17,07,41,7.30
2018,04,17,07,42,7.30
2018,04,17,07,43,7.30
2018,04,17,07,44,7.30
2018,04,17,07,45,7.20
2018,04,17,07,46,7.20
2018,04,17,07,47,7.20
2018,04,17,07,48,7.30
2018,04,17,07,49,7.30
2018,04,17,07,50,7.30
2018,04,17,07,51,7.30
2018,04,17,07,52,7.30
2018,04,17,07,53,7.30
2018,04,17,07,54,7.30
2018,04,17,07,55,7.30
2018,04,17,07,56,7.30
2018,04,17,07,57,7.30
2018,04,17,07,58,7.30
2018,04,17,07,59,7.30
2018,04,17,08,00,7.30
2018,04,17,08,01,7.40
2018,04,17,08,02,7.40
2018,04,17,08,03,7.50
2018,04,17,08,04,7.50
2018,04,17,08,05,7.50
2018,04,17,08,06,7.60
2018,04,17,08,07,7.60
2018,04,17,08,08,7.60
2018,04,17,08,09,7.60
2018,04,17,08,10,7.60
2018,04,17,08,11,7.70
2018,04,17,08,12,7.70
2018,04,17,08,13,7.80
2018,04,17,08,14,7.80
2018,04,17,08,15,7.80
2018,04,17,08,16,7.80
2018,04,17,08,17,7.90
2018,04,17,08,18,7.90
2018,04,17,08,19,7.90
2018,04,17,08,20,7.90
2018,04,17,08,21,7.90
2018,04,17,08,22,7.90
2018,04,17,08,23,7.90
2018,04,17,08,24,8.00
2018,04,17,08,25,8.00
2018,04,17,08,26,8.00
2018,04,17,08,27,8.10
2018,04,17,08,28,8.10
2018,04,17,08,29,8.20
2018,04,17,08,30,8.20
2018,04,17,08,31,8.20
2018,04,17,08,32,8.20
2018,04,17,08,33,8.20
2018,04,17,08,34,8.20
2018,04,17,08,35,8.30
2018,04,17,08,36,8.30
2018,04,17,08,37,8.30
2018,04,17,08,38,8.30
2018,04,17,08,39,8.30
2018,04,17,08,40,8.30
2018,04,17,08,41,8.40
2018,04,17,08,42,8.50
2018,04,17,08,43,8.50
2018,04,17,08,44,8.60
2018,04,17,08,45,8.60
2018,04,17,08,46,8.70
2018,04,17,08,47,8.70
2018,04,17,08,48,8.70
2018,04,17,08,49,8.70
2018,04,17,08,50,8.70
2018,04,17,08,51,8.80
2018,04,17,08,52,8.80
2018,04,17,08,53,8.80
2018,04,17,08,54,8.80
2018,04,17,08,55,8.90
2018,04,17,08,56,8.90
2018,04,17,08,57,8.90
2018,04,17,08,58,8.90
2018,04,17,08,59,8.90
2018,04,17,09,00,8.90
2018,04,17,09,01,8.90
2018,04,17,09,02,9.00
2018,04,17,09,03,9.00
2018,04,17,09,04,9.00
2018,04,17,09,05,9.10
2018,04,17,09,06,9.10
2018,04,17,09,07,9.20
2018,04,17,09,08,9.20
2018,04,17,09,09,9.20
2018,04,17,09,10,9.20
2018,04,17,09,11,9.20
2018,04,17,09,12,9.20
2018,04,17,09,13,9.20
2018,04,17,09,14,9.20
2018,04,17,09,15,9.20
2018,04,17,09,16,9.20
2018,04,17,09,17,9.20
2018,04,17,09,18,9.20
2018,04,17,09,19,9.20
2018,04,17,09,20,9.20
2018,04,17,09,21,9.20
2018,04,17,09,22,9.30
2018,04,17,09,23,9.20
2018,04,17,09,24,9.20
2018,04,17,09,25,9.20
2018,04,17,09,26,9.20
2018,04,17,09,27,9.20
2018,04,17,09,28,9.20
2018,04,17,09,29,9.20
2018,04,17,09,30,9.20
2018,04,17,09,31,9.30
2018,04,17,09,32,9.30
2018,04,17,09,33,9.40
2018,04,17,09,34,9.50
2018,04,17,09,35,9.50
2018,04,17,09,36,9.60
2018,04,17,09,37,9.50
2018,04,17,09,38,9.50
2018,04,17,09,39,9.50
2018,04,17,09,40,9.50
2018,04,17,09,41,9.50
2018,04,17,09,42,9.40
2018,04,17,09,43,9.40
2018,04,17,09,44,9.30
2018,04,17,09,45,9.30
2018,04,17,09,46,9.30
2018,04,17,09,47,9.30
2018,04,17,09,48,9.30
2018,04,17,09,49,9.40
2018,04,17,09,50,9.40
2018,04,17,09,51,9.50
2018,04,17,09,52,9.50
2018,04,17,09,53,9.50
2018,04,17,09,54,9.60
2018,04,17,09,55,9.60
2018,04,17,09,56,9.60
2018,04,17,09,57,9.50
2018,04,17,09,58,9.60
2018,04,17,09,59,9.60
2018,04,17,10,00,9.60
2018,04,17,10,01,9.50
2018,04,17,10,02,9.50
2018,04,17,10,03,9.50
2018,04,17,10,04,9.50
2018,04,17,10,05,9.60
2018,04,17,10,06,9.70
2018,04,17,10,07,9.70
2018,04,17,10,08,9.70
2018,04,17,10,09,9.70
2018,04,17,10,10,9.70
2018,04,17,10,11,9.70
2018,04,17,10,12,9.80
2018,04,17,10,13,9.80
2018,04,17,10,14,9.80
2018,04,17,10,15,9.90
2018,04,17,10,16,9.90
2018,04,17,10,17,9.90
2018,04,17,10,18,10.00
2018,04,17,10,19,10.10
2018,04,17,10,20,10.10
2018,04,17,10,21,10.10
2018,04,17,10,22,10.10
2018,04,17,10,23,10.10
2018,04,17,10,24,10.10
2018,04,17,10,25,10.10
2018,04,17,10,26,10.10
2018,04,17,10,27,10.10
2018,04,17,10,28,10.20
2018,04,17,10,29,10.30
2018,04,17,10,30,10.30
2018,04,17,10,31,10.20
2018,04,17,10,32,10.20
2018,04,17,10,33,10.20
2018,04,17,10,34,10.20
2018,04,17,10,35,10.20
2018,04,17,10,36,10.10
2018,04,17,10,37,10.10
2018,04,17,10,38,10.00
2018,04,17,10,39,9.90
2018,04,17,10,40,9.90
2018,04,17,10,41,9.90
2018,04,17,10,42,9.90
2018,04,17,10,43,9.90
2018,04,17,10,44,9.90
2018,04,17,10,45,10.00
2018,04,17,10,46,10.10
2018,04,17,10,47,10.10
2018,04,17,10,48,10.10
2018,04,17,10,49,10.10
2018,04,17,10,50,10.20
2018,04,17,10,51,10.20
2018,04,17,10,52,10.20
2018,04,17,10,53,10.20
2018,04,17,10,54,10.10
2018,04,17,10,55,10.10
2018,04,17,10,56,10.00
2018,04,17,10,57,9.90
2018,04,17,10,58,9.90
2018,04,17,10,59,9.90
2018,04,17,11,00,9.90
2018,04,17,11,01,9.90
2018,04,17,11,02,9.90
2018,04,17,11,03,9.90
2018,04,17,11,04,9.90
2018,04,17,11,05,9.90
2018,04,17,11,06,9.90
2018,04,17,11,07,9.90
2018,04,17,11,08,9.90
2018,04,17,11,09,10.00
2018,04,17,11,10,10.10
2018,04,17,11,11,10.10
2018,04,17,11,12,10.10
2018,04,17,11,13,10.20
2018,04,17,11,14,10.20
2018,04,17,11,15,10.20
2018,04,17,11,16,10.20
2018,04,17,11,17,10.20
2018,04,17,11,18,10.30
2018,04,17,11,19,10.30
2018,04,17,11,20,10.30
2018,04,17,11,21,10.30
2018,04,17,11,22,10.30
2018,04,17,11,23,10.30
2018,04,17,11,24,10.30
2018,04,17,11,25,10.30
2018,04,17,11,26,10.30
2018,04,17,11,27,10.30
2018,04,17,11,28,10.20
2018,04,17,11,29,10.30
2018,04,17,11,30,10.30
2018,04,17,11,31,10.30
2018,04,17,11,32,10.30
2018,04,17,11,33,10.20
2018,04,17,11,34,10.30
2018,04,17,11,35,10.30
2018,04,17,11,36,10.40
2018,04,17,11,37,10.40
2018,04,17,11,38,10.50
2018,04,17,11,39,10.60
2018,04,17,11,40,10.70
2018,04,17,11,41,10.80
2018,04,17,11,42,10.70
2018,04,17,11,43,10.80
2018,04,17,11,44,10.80
2018,04,17,11,45,10.90
2018,04,17,11,46,10.90
2018,04,17,11,47,10.90
2018,04,17,11,48,10.90
2018,04,17,11,49,10.90
2018,04,17,11,50,10.90
2018,04,17,11,51,11.00
2018,04,17,11,52,11.10
2018,04,17,11,53,11.10
2018,04,17,11,54,11.10
2018,04,17,11,55,11.10
2018,04,17,11,56,11.10
2018,04,17,11,57,11.10
2018,04,17,11,58,11.10
2018,04,17,11,59,11.10
2018,04,17,12,00,11.00
2018,04,17,12,01,10.90
2018,04,17,12,02,10.90
2018,04,17,12,03,11.00
2018,04,17,12,04,11.10
2018,04,17,12,05,11.10
2018,04,17,12,06,11.10
2018,04,17,12,07,11.10
2018,04,17,12,08,11.10
2018,04,17,12,09,11.20
2018,04,17,12,10,11.20
2018,04,17,12,11,11.30
2018,04,17,12,12,11.40
2018,04,17,12,13,11.40
2018,04,17,12,14,11.40
2018,04,17,12,15,11.40
2018,04,17,12,16,11.50
2018,04,17,12,17,11.50
2018,04,17,12,18,11.40
2018,04,17,12,19,11.30
2018,04,17,12,20,11.10
2018,04,17,12,21,10.90
2018,04,17,12,22,10.80
2018,04,17,12,23,10.60
2018,04,17,12,24,10.60
2018,04,17,12,25,10.60
2018,04,17,12,26,10.50
2018,04,17,12,27,10.40
2018,04,17,12,28,10.40
2018,04,17,12,29,10.40
2018,04,17,12,30,10.40
2018,04,17,12,31,10.40
2018,04,17,12,32,10.40
2018,04,17,12,33,10.40
2018,04,17,12,34,10.60
2018,04,17,12,35,10.60
2018,04,17,12,36,10.70
2018,04,17,12,37,10.80
2018,04,17,12,38,10.80
2018,04,17,12,39,10.90
2018,04,17,12,40,10.90
2018,04,17,12,41,11.00
2018,04,17,12,42,11.10
2018,04,17,12,43,11.10
2018,04,17,12,44,11.10
2018,04,17,12,45,11.10
2018,04,17,12,46,11.10
2018,04,17,12,47,11.20
2018,04,17,12,48,11.30
2018,04,17,12,49,11.20
2018,04,17,12,50,11.20
2018,04,17,12,51,11.10
2018,04,17,12,52,11.10
2018,04,17,12,53,11.10
2018,04,17,12,54,11.10
2018,04,17,12,55,11.10
2018,04,17,12,56,11.20
2018,04,17,12,57,11.30
2018,04,17,12,58,11.40
2018,04,17,12,59,11.40
2018,04,17,13,00,11.40
2018,04,17,13,01,11.40
2018,04,17,13,02,11.40
2018,04,17,13,03,11.40
2018,04,17,13,04,11.30
2018,04,17,13,05,11.30
2018,04,17,13,06,11.20
2018,04,17,13,07,11.10
2018,04,17,13,08,11.10
2018,04,17,13,09,11.10
2018,04,17,13,10,10.90
2018,04,17,13,11,10.90
2018,04,17,13,12,10.80
2018,04,17,13,13,10.60
2018,04,17,13,14,10.60
2018,04,17,13,15,10.70
2018,04,17,13,16,10.70
2018,04,17,13,17,10.60
2018,04,17,13,18,10.60
2018,04,17,13,19,10.60
2018,04,17,13,20,10.70
2018,04,17,13,21,10.80
2018,04,17,13,22,10.90
2018,04,17,13,23,10.90
2018,04,17,13,24,10.90
2018,04,17,13,25,10.90
2018,04,17,13,26,10.90
2018,04,17,13,27,10.90
2018,04,17,13,28,10.90
2018,04,17,13,29,10.90
2018,04,17,13,30,10.90
2018,04,17,13,31,10.90
2018,04,17,13,32,11.00
2018,04,17,13,33,11.10
2018,04,17,13,34,11.10
2018,04,17,13,35,11.10
2018,04,17,13,36,11.20
2018,04,17,13,37,11.20
2018,04,17,13,38,11.10
2018,04,17,13,39,11.10
2018,04,17,13,40,10.90
2018,04,17,13,41,11.00
2018,04,17,13,42,11.10
2018,04,17,13,43,11.10
2018,04,17,13,44,11.00
2018,04,17,13,45,10.90
2018,04,17,13,46,10.90
2018,04,17,13,47,10.90
2018,04,17,13,48,10.90
2018,04,17,13,49,10.90
2018,04,17,13,50,10.90
2018,04,17,13,51,10.90
2018,04,17,13,52,11.00
2018,04,17,13,53,11.10
2018,04,17,13,54,11.10
2018,04,17,13,55,11.10
2018,04,17,13,56,11.20
2018,04,17,13,57,11.20
2018,04,17,13,58,11.20
2018,04,17,13,59,11.20
2018,04,17,14,00,11.10
2018,04,17,14,01,11.10
2018,04,17,14,02,11.10
2018,04,17,14,03,11.10
2018,04,17,14,04,11.10
2018,04,17,14,05,11.10
2018,04,17,14,06,11.20
2018,04,17,14,07,11.20
2018,04,17,14,08,11.30
2018,04,17,14,09,11.30
2018,04,17,14,10,11.30
2018,04,17,14,11,11.40
2018,04,17,14,12,11.40
2018,04,17,14,13,11.60
2018,04,17,14,14,11.60
2018,04,17,14,15,11.60
2018,04,17,14,16,11.60
2018,04,17,14,17,11.60
2018,04,17,14,18,11.70
2018,04,17,14,19,11.80
2018,04,17,14,20,11.80
2018,04,17,14,21,11.80
2018,04,17,14,22,11.80
2018,04,17,14,23,11.80
2018,04,17,14,24,11.80
2018,04,17,14,25,11.90
2018,04,17,14,26,11.80
2018,04,17,14,27,11.80
2018,04,17,14,28,11.80
2018,04,17,14,29,11.70
2018,04,17,14,30,11.60
2018,04,17,14,31,11.60
2018,04,17,14,32,11.60
2018,04,17,14,33,11.60
2018,04,17,14,34,11.50
2018,04,17,14,35,11.40
2018,04,17,14,36,11.40
2018,04,17,14,37,11.40
2018,04,17,14,38,11.40
2018,04,17,14,39,11.40
2018,04,17,14,40,11.40
2018,04,17,14,41,11.30
2018,04,17,14,42,11.30
2018,04,17,14,43,11.30
2018,04,17,14,44,11.20
2018,04,17,14,45,11.20
2018,04,17,14,46,11.10
2018,04,17,14,47,11.10
2018,04,17,14,48,11.10
2018,04,17,14,49,11.10
2018,04,17,14,50,11.10
2018,04,17,14,51,11.10
2018,04,17,14,52,11.10
2018,04,17,14,53,11.10
2018,04,17,14,54,11.10
2018,04,17,14,55,11.10
2018,04,17,14,56,11.10
2018,04,17,14,57,11.10
2018,04,17,14,58,11.00
2018,04,17,14,59,10.90
2018,04,17,15,00,10.90
2018,04,17,15,01,10.90
2018,04,17,15,02,10.90
2018,04,17,15,03,10.80
2018,04,17,15,04,10.80
2018,04,17,15,05,10.90
2018,04,17,15,06,10.90
2018,04,17,15,07,10.90
2018,04,17,15,08,10.80
2018,04,17,15,09,10.70
2018,04,17,15,10,10.70
2018,04,17,15,11,10.70
2018,04,17,15,12,10.60
2018,04,17,15,13,10.60
2018,04,17,15,14,10.60
2018,04,17,15,15,10.60
2018,04,17,15,16,10.60
2018,04,17,15,17,10.60
2018,04,17,15,18,10.50
2018,04,17,15,19,10.40
2018,04,17,15,20,10.40
2018,04,17,15,21,10.40
2018,04,17,15,22,10.40
2018,04,17,15,23,10.30
2018,04,17,15,24,10.30
2018,04,17,15,25,10.30
2018,04,17,15,26,10.30
2018,04,17,15,27,10.30
2018,04,17,15,28,10.30
2018,04,17,15,29,10.30
2018,04,17,15,30,10.30
2018,04,17,15,31,10.30
2018,04,17,15,32,10.30
2018,04,17,15,33,10.30
2018,04,17,15,34,10.30
2018,04,17,15,35,10.30
2018,04,17,15,36,10.40
2018,04,17,15,37,10.40
2018,04,17,15,38,10.40
2018,04,17,15,39,10.40
2018,04,17,15,40,10.40
2018,04,17,15,41,10.40
2018,04,17,15,42,10.40
2018,04,17,15,43,10.40
2018,04,17,15,44,10.40
2018,04,17,15,45,10.40
2018,04,17,15,46,10.40
2018,04,17,15,47,10.40
2018,04,17,15,48,10.40
2018,04,17,15,49,10.40
2018,04,17,15,50,10.40
2018,04,17,15,51,10.30
2018,04,17,15,52,10.30
2018,04,17,15,53,10.20
2018,04,17,15,54,10.20
2018,04,17,15,55,10.20
2018,04,17,15,56,10.20
2018,04,17,15,57,10.20
2018,04,17,15,58,10.20
2018,04,17,15,59,10.20
2018,04,17,16,00,10.20
2018,04,17,16,01,10.20
2018,04,17,16,02,10.20
2018,04,17,16,03,10.20
2018,04,17,16,04,10.30
2018,04,17,16,05,10.20
2018,04,17,16,06,10.20
2018,04,17,16,07,10.20
2018,04,17,16,08,10.30
2018,04,17,16,09,10.30
2018,04,17,16,10,10.30
2018,04,17,16,11,10.30
2018,04,17,16,12,10.30
2018,04,17,16,13,10.30
2018,04,17,16,14,10.40
2018,04,17,16,15,10.40
2018,04,17,16,16,10.40
2018,04,17,16,17,10.40
2018,04,17,16,18,10.40
2018,04,17,16,19,10.40
2018,04,17,16,20,10.40
2018,04,17,16,21,10.50
2018,04,17,16,22,10.60
2018,04,17,16,23,10.60
2018,04,17,16,24,10.60
2018,04,17,16,25,10.60
2018,04,17,16,26,10.60
2018,04,17,16,27,10.60
2018,04,17,16,28,10.60
2018,04,17,16,29,10.60
2018,04,17,16,30,10.60
2018,04,17,16,31,10.60
2018,04,17,16,32,10.60
2018,04,17,16,33,10.50
2018,04,17,16,34,10.50
2018,04,17,16,35,10.40
2018,04,17,16,36,10.40
2018,04,17,16,37,10.40
2018,04,17,16,38,10.40
2018,04,17,16,39,10.40
2018,04,17,16,40,10.40
2018,04,17,16,41,10.40
2018,04,17,16,42,10.40
2018,04,17,16,43,10.40
2018,04,17,16,44,10.40
2018,04,17,16,45,10.40
2018,04,17,16,46,10.40
2018,04,17,16,47,10.30
2018,04,17,16,48,10.30
2018,04,17,16,49,10.20
2018,04,17,16,50,10.20
2018,04,17,16,51,10.20
2018,04,17,16,52,10.20
2018,04,17,16,53,10.20
2018,04,17,16,54,10.10
2018,04,17,16,55,10.10
2018,04,17,16,56,10.10
2018,04,17,16,57,10.10
2018,04,17,16,58,10.10
2018,04,17,16,59,10.10
2018,04,17,17,00,10.00
2018,04,17,17,01,9.90
2018,04,17,17,02,9.90
2018,04,17,17,03,9.90
2018,04,17,17,04,9.90
2018,04,17,17,05,9.90
2018,04,17,17,06,9.90
2018,04,17,17,07,9.90
2018,04,17,17,08,9.90
2018,04,17,17,09,9.80
2018,04,17,17,10,9.90
2018,04,17,17,11,9.90
2018,04,17,17,12,9.90
2018,04,17,17,13,9.90
2018,04,17,17,14,9.90
2018,04,17,17,15,9.90
2018,04,17,17,16,9.90
2018,04,17,17,17,9.90
2018,04,17,17,18,9.90
2018,04,17,17,19,9.90
2018,04,17,17,20,9.90
2018,04,17,17,21,9.90
2018,04,17,17,22,9.90
2018,04,17,17,23,9.90
2018,04,17,17,24,9.90
2018,04,17,17,25,9.90
2018,04,17,17,26,9.90
2018,04,17,17,27,9.90
2018,04,17,17,28,9.90
2018,04,17,17,29,9.90
2018,04,17,17,30,9.90
2018,04,17,17,31,9.90
2018,04,17,17,32,9.90
2018,04,17,17,33,9.90
2018,04,17,17,34,9.90
2018,04,17,17,35,9.90
2018,04,17,17,36,9.90
2018,04,17,17,37,9.80
2018,04,17,17,38,9.80
2018,04,17,17,39,9.80
2018,04,17,17,40,9.90
2018,04,17,17,41,9.90
2018,04,17,17,42,9.90
2018,04,17,17,43,9.90
2018,04,17,17,44,9.80
2018,04,17,17,45,9.90
2018,04,17,17,46,9.80
2018,04,17,17,47,9.80
2018,04,17,17,48,9.80
2018,04,17,17,49,9.80